Home > Weather > Fairfax > Past weeks

Flag for USA Past Weather in Fairfax, Virginia, USA — Yesterday and Last 2 Weeks

Now
88 °F

Scattered clouds.


Feels Like: 92 °F
Forecast: 72 / 86 °F
Wind: 9 mph from Northwest

Location: Washington-Dulles International Airport

Current Time: Jul 29, 2016 at 3:47:01 PM

Latest Report: Jul 29, 2016 at 2:52 PM


Visibility: 10 mi

Pressure: 29.88 "Hg

Humidity: 52%

Dew Point: 68 °F

Location of FairfaxLocation

Past Weather in Fairfax — Graph

°F

Fairfax Temperature Yesterday

Maximum temperature yesterday: 90 °F (at 12:52 PM)
Minimum temperature yesterday: 74 °F (at 8:52 PM)
Average temperature yesterday: 79 °F

High & Low Weather Summary for the Past Weeks

 TemperatureHumidityPressure
High99 °F (Jul 25, 1:52 PM)100% (Jul 17, 3:52 AM)30.22 "Hg (Jul 17, 3:52 AM)
Low60 °F (Jul 21, 5:52 AM)30% (Jul 20, 2:52 PM)29.80 "Hg (Jul 29, 2:52 AM)
Average81 °F66%30.00 "Hg
* Reported Jul 14 1:52 PM — Jul 29 1:52 PM, Fairfax, Weather by CustomWeather, © 2016

Note: Actual official high and low records may vary slightly from our data, if they occured in-between our weather recording intervals... More about our weather records

Advertising

Fairfax Weather History for the Previous 24 Hours

Scroll right to see more
 ConditionsComfort  
Time TempWeatherWind HumidityBarometerVisibility
1:52 PM
Fri, Jul 29
85 °FScattered clouds.9 mph57%29.88 "Hg10 mi
12:52 PM85 °FScattered clouds.6 mph57%29.88 "Hg10 mi
11:52 AM83 °FBroken clouds.7 mph61%29.89 "Hg10 mi
10:52 AM81 °FBroken clouds.10 mph67%29.89 "Hg10 mi
9:52 AM76 °FPartly sunny.9 mph80%29.89 "Hg10 mi
8:52 AM74 °FCloudy.8 mph88%29.89 "Hg10 mi
7:52 AM73 °FMostly cloudy.8 mph94%29.88 "Hg7 mi
6:52 AM72 °FPartly cloudy.9 mph93%29.85 "Hg7 mi
5:52 AM72 °FMostly cloudy.8 mph93%29.83 "Hg7 mi
4:52 AM73 °FLight rain. Fog.8 mph94%29.81 "Hg5 mi
3:56 AM72 °FHeavy rain. Fog.8 mph97%29.82 "Hg2 mi
3:52 AM72 °FHeavy rain. Fog.8 mph97%29.80 "Hg2 mi
2:52 AM74 °FLight rain. Fog.7 mph97%29.80 "Hg3 mi
1:52 AM74 °FLight rain. Low clouds.5 mph97%29.83 "Hg8 mi
12:52 AM75 °FLow clouds.7 mph94%29.83 "Hg7 mi
12:03 AM75 °FLight rain. Mostly cloudy.6 mph94%29.85 "Hg10 mi
11:52 PM
Thu, Jul 28
75 °FLight rain. Fog.5 mph90%29.85 "Hg4 mi
10:52 PM74 °FRain. Fog.3 mph97%29.85 "Hg2 mi
9:52 PM75 °FLight rain. Fog.9 mph94%29.85 "Hg5 mi
8:52 PM74 °FLight rain. Fog.8 mph97%29.85 "Hg5 mi
7:52 PM76 °FCloudy.9 mph88%29.84 "Hg10 mi
6:52 PM78 °FLight rain. Broken clouds.8 mph87%29.84 "Hg9 mi
5:52 PM77 °FLight rain. Partly sunny.10 mph90%29.83 "Hg8 mi
4:52 PM77 °FThunderstorms. Fog.18 mph90%29.84 "Hg2 mi
4:03 PM84 °FThunderstorms. Broken clouds.18 mph55%29.83 "Hg9 mi
Weather by CustomWeather, © 2016

See weather overviewHow to use our weather pages